QPF
0.00 0.00 0.00 0.02 0.03 0.01 0.01 0.00 0.00 0.01 0.01 0.00 0.00 0.00 0.00 0.01 0.02 0.04 0.02 0.02 0.01 0.02 0.01 0.01 0.03 0.03 0.03 0.02 0.02 0.01 0.01 0.01 0.01 0.02 0.01 0.02 0.03 0.05 0.04 0.02 0.03 0.04 0.05 0.05 0.03 0.02 0.02 0.01 0.01
0.00 0.01 0.01 0.02 0.02 0.02 0.01 0.00 0.00 0.00 0.00 0.00 0.00 0.00 0.01 0.01 0.00 0.01 0.01 0.01 0.03 0.03 0.02 0.02 0.02 0.03 0.04 0.03 0.02 0.01 0.01 0.02 0.02 0.02 0.02 0.03 0.03 0.05 0.05 0.03 0.03 0.03 0.03 0.03 0.02 0.02 0.02 0.01 0.01
0.00 0.01 0.01 0.02 0.01 0.01 0.01 0.00 0.00 0.00 0.00 0.00 0.01 0.00 0.01 0.01 0.00 0.01 0.01 0.01 0.04 0.04 0.02 0.01 0.02 0.03 0.04 0.05 0.03 0.03 0.03 0.04 0.04 0.03 0.04 0.03 0.04 0.06 0.05 0.03 0.04 0.03 0.02 0.02 0.02 0.02 0.02 0.01 0.01
0.01 0.01 0.01 0.01 0.01 0.01 0.01 0.01 0.00 0.00 0.00 0.00 0.01 0.02 0.02 0.01 0.01 0.01 0.01 0.02 0.03 0.04 0.02 0.01 0.02 0.03 0.04 0.04 0.05 0.04 0.05 0.05 0.05 0.04 0.05 0.03 0.05 0.06 0.05 0.03 0.03 0.03 0.02 0.02 0.03 0.03 0.02 0.01 0.01
0.01 0.01 0.00 0.00 0.01 0.01 0.01 0.01 0.01 0.01 0.01 0.01 0.01 0.02 0.03 0.02 0.01 0.01 0.01 0.02 0.03 0.04 0.03 0.02 0.02 0.03 0.04 0.04 0.07 0.07 0.06 0.06 0.06 0.05 0.05 0.05 0.06 0.05 0.04 0.04 0.04 0.03 0.03 0.02 0.03 0.03 0.02 0.01 0.01
0.04 0.01 0.00 0.00 0.01 0.01 0.01 0.01 0.01 0.02 0.01 0.01 0.01 0.02 0.03 0.02 0.01 0.01 0.02 0.03 0.04 0.05 0.05 0.03 0.02 0.03 0.04 0.04 0.05 0.06 0.07 0.08 0.07 0.06 0.05 0.05 0.04 0.03 0.04 0.04 0.04 0.03 0.02 0.02 0.02 0.02 0.02 0.01 0.01
0.04 0.02 0.00 0.00 0.01 0.01 0.02 0.01 0.02 0.02 0.01 0.02 0.02 0.02 0.03 0.02 0.01 0.01 0.02 0.05 0.05 0.06 0.07 0.05 0.04 0.04 0.04 0.04 0.04 0.04 0.05 0.07 0.07 0.07 0.06 0.04 0.03 0.02 0.03 0.03 0.03 0.02 0.01 0.01 0.01 0.01 0.02 0.01 0.01
0.03 0.02 0.01 0.00 0.01 0.02 0.02 0.01 0.02 0.02 0.02 0.02 0.01 0.02 0.03 0.02 0.02 0.02 0.02 0.05 0.05 0.04 0.05 0.05 0.06 0.07 0.06 0.05 0.05 0.05 0.05 0.05 0.06 0.06 0.05 0.03 0.02 0.01 0.01 0.02 0.02 0.01 0.01 0.01 0.01 0.01 0.01 0.01 0.01
0.02 0.02 0.02 0.01 0.01 0.02 0.02 0.01 0.01 0.02 0.02 0.01 0.01 0.01 0.01 0.02 0.02 0.03 0.03 0.05 0.05 0.03 0.03 0.03 0.04 0.06 0.07 0.07 0.05 0.07 0.06 0.07 0.06 0.05 0.04 0.03 0.02 0.02 0.01 0.01 0.01 0.01 0.01 0.01 0.01 0.01 0.01 0.01 0.01
0.04 0.03 0.01 0.01 0.01 0.00 0.01 0.01 0.01 0.01 0.01 0.01 0.01 0.01 0.01 0.03 0.04 0.03 0.03 0.04 0.04 0.04 0.04 0.03 0.04 0.05 0.06 0.07 0.08 0.07 0.07 0.07 0.07 0.05 0.05 0.04 0.03 0.03 0.02 0.01 0.01 0.01 0.01 0.00 0.00 0.01 0.01 0.01 0.01
0.03 0.03 0.01 0.01 0.00 0.00 0.00 0.00 0.00 0.01 0.00 0.00 0.01 0.01 0.01 0.02 0.02 0.02 0.02 0.02 0.02 0.04 0.05 0.03 0.02 0.03 0.04 0.06 0.09 0.11 0.10 0.08 0.07 0.06 0.07 0.06 0.04 0.03 0.02 0.02 0.01 0.01 0.01 0.01 0.01 0.01 0.00 0.01 0.01
0.01 0.02 0.02 0.01 0.00 0.00 0.00 0.00 0.00 0.00 0.00 0.00 0.00 0.00 0.00 0.00 0.01 0.02 0.01 0.01 0.01 0.02 0.04 0.03 0.02 0.02 0.03 0.04 0.07 0.10 0.11 0.10 0.10 0.09 0.09 0.09 0.06 0.03 0.02 0.02 0.01 0.01 0.01 0.01 0.01 0.01 0.01 0.01 0.01
0.01 0.01 0.01 0.01 0.01 0.01 0.00 0.00 0.00 0.00 0.00 0.00 0.00 0.00 0.01 0.00 0.01 0.02 0.02 0.01 0.02 0.02 0.02 0.02 0.02 0.01 0.02 0.04 0.04 0.07 0.10 0.11 0.11 0.12 0.12 0.09 0.08 0.05 0.03 0.02 0.01 0.01 0.01 0.01 0.01 0.01 0.01 0.01 0.01
0.01 0.01 0.01 0.01 0.01 0.01 0.01 0.00 0.00 0.00 0.00 0.00 0.00 0.00 0.01 0.01 0.01 0.02 0.02 0.02 0.02 0.02 0.02 0.01 0.01 0.01 0.02 0.03 0.03 0.04 0.07 0.09 0.10 0.11 0.11 0.10 0.09 0.07 0.03 0.02 0.01 0.01 0.01 0.01 0.01 0.01 0.01 0.01 0.01
0.01 0.01 0.01 0.01 0.01 0.01 0.01 0.01 0.01 0.00 0.00 0.00 0.00 0.00 0.00 0.01 0.01 0.01 0.02 0.02 0.02 0.02 0.03 0.02 0.02 0.02 0.02 0.03 0.03 0.03 0.05 0.07 0.09 0.11 0.12 0.10 0.10 0.09 0.05 0.02 0.01 0.01 0.01 0.01 0.01 0.01 0.01 0.01 0.01
0.01 0.01 0.01 0.01 0.01 0.01 0.01 0.01 0.01 0.00 0.00 0.00 0.00 0.00 0.00 0.01 0.02 0.01 0.02 0.02 0.02 0.03 0.03 0.03 0.02 0.02 0.03 0.03 0.03 0.03 0.04 0.06 0.07 0.10 0.12 0.12 0.10 0.09 0.07 0.03 0.02 0.01 0.01 0.01 0.01 0.01 0.01 0.01 0.01
0.01 0.01 0.01 0.01 0.00 0.01 0.01 0.01 0.00 0.00 0.00 0.00 0.00 0.00 0.00 0.01 0.02 0.02 0.02 0.03 0.02 0.03 0.04 0.04 0.04 0.03 0.03 0.03 0.03 0.03 0.04 0.05 0.05 0.07 0.10 0.11 0.11 0.11 0.09 0.05 0.03 0.01 0.01 0.01 0.01 0.01 0.01 0.01 0.01
0.01 0.01 0.00 0.01 0.01 0.00 0.01 0.00 0.00 0.00 0.00 0.00 0.00 0.00 0.00 0.01 0.01 0.02 0.03 0.03 0.03 0.03 0.04 0.04 0.06 0.05 0.05 0.04 0.03 0.03 0.04 0.04 0.05 0.05 0.06 0.08 0.10 0.11 0.10 0.07 0.05 0.02 0.01 0.01 0.00 0.00 0.00 0.00 0.00
0.01 0.00 0.00 0.00 0.01 0.00 0.00 0.00 0.00 0.00 0.00 0.00 0.00 0.00 0.01 0.01 0.01 0.01 0.02 0.03 0.03 0.03 0.03 0.04 0.06 0.07 0.07 0.07 0.05 0.04 0.03 0.03 0.03 0.04 0.04 0.06 0.09 0.10 0.10 0.10 0.08 0.05 0.03 0.01 0.00 0.00 0.00 0.00 0.00
0.01 0.01 0.00 0.00 0.00 0.01 0.01 0.00 0.00 0.00 0.00 0.00 0.00 0.00 0.01 0.01 0.01 0.01 0.01 0.02 0.02 0.02 0.02 0.03 0.05 0.06 0.08 0.08 0.08 0.06 0.04 0.03 0.03 0.04 0.04 0.05 0.08 0.11 0.12 0.12 0.12 0.09 0.06 0.04 0.02 0.01 0.00 0.00 0.00
0.01 0.01 0.01 0.01 0.00 0.01 0.01 0.01 0.00 0.00 0.00 0.00 0.00 0.00 0.00 0.01 0.01 0.01 0.01 0.01 0.01 0.02 0.03 0.03 0.03 0.05 0.06 0.06 0.08 0.08 0.07 0.05 0.04 0.03 0.03 0.04 0.05 0.07 0.09 0.10 0.12 0.11 0.08 0.05 0.04 0.02 0.01 0.01 0.01
0.02 0.01 0.01 0.01 0.01 0.01 0.01 0.02 0.01 0.00 0.00 0.00 0.00 0.00 0.00 0.00 0.01 0.01 0.01 0.01 0.01 0.01 0.02 0.02 0.03 0.04 0.05 0.05 0.06 0.07 0.08 0.07 0.05 0.04 0.03 0.03 0.04 0.04 0.06 0.07 0.08 0.11 0.12 0.08 0.05 0.03 0.01 0.01 0.01
0.01 0.00 0.00 0.00 0.01 0.01 0.01 0.02 0.01 0.00 0.00 0.00 0.00 0.00 0.00 0.00 0.01 0.01 0.01 0.01 0.01 0.01 0.01 0.01 0.01 0.02 0.02 0.03 0.04 0.05 0.06 0.07 0.06 0.05 0.04 0.03 0.03 0.03 0.04 0.05 0.06 0.06 0.09 0.11 0.09 0.05 0.03 0.02 0.01
0.00 0.00 0.01 0.01 0.01 0.02 0.01 0.01 0.01 0.00 0.00 0.00 0.00 0.00 0.00 0.00 0.00 0.01 0.01 0.00 0.00 0.00 0.00 0.00 0.01 0.01 0.01 0.01 0.02 0.03 0.04 0.05 0.05 0.05 0.06 0.05 0.04 0.03 0.03 0.04 0.05 0.05 0.05 0.06 0.07 0.07 0.05 0.03 0.01
0.01 0.01 0.02 0.02 0.02 0.01 0.00 0.00 0.01 0.00 0.00 0.00 0.00 0.00 0.00 0.00 0.00 0.00 0.00 0.00 0.00 0.00 0.00 0.00 0.00 0.00 0.00 0.01 0.01 0.01 0.02 0.03 0.04 0.04 0.04 0.04 0.05 0.04 0.04 0.03 0.03 0.04 0.04 0.04 0.05 0.05 0.05 0.04 0.03
0.01 0.01 0.02 0.02 0.01 0.01 0.00 0.00 0.00 0.00 0.00 0.00 0.00 0.00 0.00 0.00 0.00 0.00 0.00 0.00 0.00 0.00 0.00 0.00 0.00 0.00 0.00 0.00 0.01 0.01 0.01 0.01 0.01 0.03 0.03 0.03 0.03 0.03 0.03 0.03 0.03 0.03 0.03 0.04 0.04 0.04 0.05 0.04 0.03
0.01 0.01 0.01 0.01 0.01 0.00 0.00 0.00 0.00 0.00 0.00 0.00 0.00 0.00 0.00 0.00 0.00 0.00 0.00 0.00 0.00 0.00 0.00 0.00 0.00 0.00 0.00 0.00 0.00 0.01 0.01 0.01 0.00 0.01 0.02 0.03 0.03 0.02 0.02 0.02 0.02 0.02 0.03 0.04 0.04 0.05 0.05 0.05 0.04
0.00 0.01 0.01 0.02 0.02 0.01 0.00 0.00 0.00 0.00 0.00 0.00 0.00 0.00 0.00 0.00 0.00 0.00 0.00 0.00 0.00 0.00 0.00 0.00 0.00 0.00 0.00 0.00 0.00 0.00 0.00 0.01 0.01 0.01 0.01 0.02 0.02 0.03 0.03 0.03 0.02 0.02 0.02 0.03 0.03 0.04 0.05 0.06 0.06
0.00 0.01 0.01 0.02 0.02 0.02 0.01 0.00 0.00 0.00 0.00 0.00 0.00 0.00 0.00 0.00 0.00 0.00 0.00 0.00 0.00 0.00 0.00 0.00 0.00 0.00 0.00 0.00 0.00 0.00 0.00 0.00 0.01 0.01 0.01 0.01 0.02 0.02 0.02 0.03 0.03 0.03 0.03 0.03 0.03 0.03 0.03 0.04 0.05
0.00 0.00 0.01 0.02 0.02 0.01 0.01 0.00 0.00 0.00 0.00 0.00 0.00 0.00 0.00 0.00 0.00 0.00 0.00 0.00 0.00 0.00 0.00 0.00 0.00 0.00 0.00 0.00 0.00 0.00 0.00 0.00 0.01 0.01 0.01 0.01 0.02 0.02 0.02 0.02 0.02 0.02 0.02 0.02 0.03 0.03 0.03 0.03 0.03
MSLP
1012.77 1012.83 1013.03 1013.32 1013.61 1013.83 1013.93 1013.89 1013.74 1013.54 1013.40 1013.39 1013.58 1013.98 1014.56 1015.24 1015.93 1016.54 1017.01 1017.32 1017.50 1017.61 1017.71 1017.87 1018.11 1018.43 1018.80 1019.18 1019.50 1019.74 1019.89 1019.97 1020.00 1020.04 1020.11 1020.23 1020.38 1020.56 1020.73 1020.87 1020.98 1021.06 1021.12 1021.17 1021.24 1021.31 1021.36 1021.38 1021.34
1012.90 1013.03 1013.28 1013.58 1013.86 1014.05 1014.10 1014.02 1013.85 1013.67 1013.57 1013.63 1013.88 1014.34 1014.94 1015.62 1016.27 1016.82 1017.21 1017.46 1017.59 1017.67 1017.77 1017.93 1018.20 1018.54 1018.93 1019.32 1019.65 1019.90 1020.06 1020.15 1020.21 1020.29 1020.40 1020.55 1020.74 1020.93 1021.11 1021.25 1021.35 1021.41 1021.46 1021.51 1021.58 1021.65 1021.71 1021.75 1021.72
1013.08 1013.28 1013.57 1013.88 1014.14 1014.29 1014.29 1014.17 1013.99 1013.83 1013.77 1013.89 1014.21 1014.72 1015.35 1016.02 1016.64 1017.14 1017.47 1017.66 1017.75 1017.80 1017.89 1018.06 1018.33 1018.69 1019.08 1019.46 1019.79 1020.03 1020.20 1020.32 1020.42 1020.54 1020.70 1020.89 1021.11 1021.33 1021.51 1021.64 1021.73 1021.78 1021.81 1021.86 1021.92 1022.00 1022.07 1022.11 1022.10
1013.31 1013.57 1013.90 1014.21 1014.45 1014.55 1014.51 1014.37 1014.18 1014.04 1014.03 1014.20 1014.58 1015.13 1015.78 1016.45 1017.03 1017.48 1017.76 1017.90 1017.96 1018.00 1018.09 1018.26 1018.53 1018.88 1019.26 1019.63 1019.93 1020.17 1020.34 1020.48 1020.62 1020.78 1020.99 1021.24 1021.49 1021.73 1021.92 1022.05 1022.13 1022.16 1022.19 1022.23 1022.29 1022.37 1022.45 1022.49 1022.49
1013.58 1013.88 1014.24 1014.56 1014.77 1014.85 1014.78 1014.62 1014.43 1014.32 1014.35 1014.58 1015.00 1015.57 1016.23 1016.87 1017.42 1017.81 1018.06 1018.17 1018.20 1018.24 1018.33 1018.51 1018.79 1019.13 1019.49 1019.83 1020.11 1020.33 1020.50 1020.65 1020.82 1021.02 1021.28 1021.57 1021.86 1022.13 1022.33 1022.47 1022.54 1022.58 1022.60 1022.64 1022.70 1022.78 1022.85 1022.90 1022.89
1013.87 1014.21 1014.59 1014.91 1015.11 1015.17 1015.09 1014.93 1014.77 1014.68 1014.76 1015.02 1015.47 1016.05 1016.68 1017.29 1017.78 1018.13 1018.33 1018.42 1018.45 1018.50 1018.61 1018.81 1019.09 1019.43 1019.77 1020.08 1020.34 1020.53 1020.69 1020.85 1021.03 1021.27 1021.56 1021.89 1022.21 1022.50 1022.73 1022.88 1022.96 1023.00 1023.03 1023.07 1023.13 1023.21 1023.28 1023.33 1023.31
1014.17 1014.55 1014.94 1015.26 1015.46 1015.52 1015.45 1015.31 1015.17 1015.13 1015.24 1015.53 1015.98 1016.54 1017.14 1017.68 1018.12 1018.41 1018.57 1018.64 1018.68 1018.75 1018.89 1019.11 1019.42 1019.76 1020.09 1020.38 1020.61 1020.79 1020.93 1021.08 1021.27 1021.53 1021.84 1022.19 1022.54 1022.85 1023.10 1023.26 1023.36 1023.41 1023.45 1023.50 1023.57 1023.64 1023.71 1023.74 1023.71
1014.50 1014.89 1015.28 1015.61 1015.82 1015.89 1015.84 1015.74 1015.64 1015.64 1015.78 1016.09 1016.52 1017.04 1017.58 1018.05 1018.41 1018.64 1018.76 1018.81 1018.86 1018.96 1019.13 1019.40 1019.73 1020.09 1020.43 1020.71 1020.93 1021.08 1021.22 1021.36 1021.55 1021.81 1022.13 1022.48 1022.84 1023.16 1023.42 1023.60 1023.71 1023.78 1023.83 1023.89 1023.96 1024.03 1024.10 1024.12 1024.08
1014.84 1015.24 1015.64 1015.97 1016.18 1016.27 1016.26 1016.20 1016.16 1016.20 1016.36 1016.67 1017.08 1017.54 1017.99 1018.38 1018.66 1018.82 1018.89 1018.93 1018.99 1019.11 1019.32 1019.63 1020.00 1020.38 1020.74 1021.03 1021.25 1021.40 1021.53 1021.67 1021.85 1022.10 1022.41 1022.75 1023.10 1023.42 1023.68 1023.86 1023.99 1024.07 1024.14 1024.20 1024.28 1024.36 1024.41 1024.43 1024.39
1015.21 1015.61 1016.00 1016.33 1016.55 1016.67 1016.70 1016.69 1016.69 1016.77 1016.96 1017.25 1017.62 1018.02 1018.39 1018.68 1018.87 1018.95 1018.98 1018.99 1019.05 1019.19 1019.43 1019.77 1020.18 1020.59 1020.97 1021.29 1021.52 1021.69 1021.83 1021.97 1022.15 1022.38 1022.67 1022.99 1023.31 1023.61 1023.86 1024.04 1024.17 1024.27 1024.35 1024.43 1024.51 1024.59 1024.65 1024.67 1024.63
1015.61 1016.00 1016.38 1016.70 1016.94 1017.08 1017.15 1017.18 1017.24 1017.36 1017.56 1017.83 1018.16 1018.48 1018.76 1018.96 1019.06 1019.07 1019.04 1019.02 1019.07 1019.21 1019.46 1019.82 1020.25 1020.69 1021.10 1021.44 1021.71 1021.91 1022.07 1022.22 1022.40 1022.62 1022.88 1023.17 1023.46 1023.73 1023.95 1024.13 1024.26 1024.37 1024.46 1024.55 1024.65 1024.73 1024.80 1024.82 1024.79
1016.03 1016.40 1016.77 1017.09 1017.33 1017.50 1017.61 1017.69 1017.80 1017.94 1018.15 1018.41 1018.69 1018.94 1019.14 1019.25 1019.26 1019.21 1019.12 1019.06 1019.07 1019.19 1019.43 1019.78 1020.21 1020.66 1021.09 1021.47 1021.78 1022.02 1022.21 1022.39 1022.58 1022.79 1023.02 1023.28 1023.52 1023.76 1023.96 1024.12 1024.26 1024.38 1024.49 1024.60 1024.71 1024.81 1024.87 1024.90 1024.87
1016.46 1016.82 1017.17 1017.48 1017.73 1017.93 1018.08 1018.21 1018.36 1018.54 1018.75 1018.99 1019.23 1019.42 1019.55 1019.58 1019.52 1019.39 1019.25 1019.13 1019.10 1019.17 1019.37 1019.69 1020.09 1020.53 1020.97 1021.37 1021.71 1022.00 1022.23 1022.44 1022.64 1022.85 1023.07 1023.29 1023.50 1023.70 1023.88 1024.04 1024.18 1024.32 1024.46 1024.59 1024.72 1024.83 1024.90 1024.93 1024.90
1016.88 1017.22 1017.56 1017.87 1018.14 1018.37 1018.57 1018.75 1018.94 1019.15 1019.38 1019.60 1019.81 1019.95 1020.02 1019.99 1019.87 1019.68 1019.48 1019.31 1019.21 1019.22 1019.35 1019.60 1019.95 1020.35 1020.76 1021.17 1021.53 1021.85 1022.13 1022.38 1022.60 1022.82 1023.02 1023.22 1023.40 1023.58 1023.74 1023.90 1024.06 1024.22 1024.39 1024.56 1024.71 1024.83 1024.91 1024.93 1024.90
1017.27 1017.60 1017.93 1018.25 1018.55 1018.82 1019.07 1019.31 1019.55 1019.79 1020.03 1020.26 1020.43 1020.54 1020.57 1020.49 1020.33 1020.10 1019.84 1019.61 1019.45 1019.38 1019.42 1019.58 1019.84 1020.17 1020.55 1020.93 1021.30 1021.65 1021.96 1022.24 1022.48 1022.70 1022.90 1023.08 1023.24 1023.40 1023.56 1023.72 1023.90 1024.10 1024.31 1024.51 1024.69 1024.84 1024.92 1024.94 1024.89
1017.64 1017.95 1018.29 1018.63 1018.96 1019.28 1019.59 1019.89 1020.18 1020.47 1020.72 1020.95 1021.11 1021.20 1021.19 1021.09 1020.90 1020.64 1020.35 1020.07 1019.84 1019.69 1019.64 1019.69 1019.85 1020.10 1020.41 1020.75 1021.10 1021.45 1021.78 1022.08 1022.34 1022.56 1022.75 1022.92 1023.07 1023.21 1023.37 1023.54 1023.75 1023.98 1024.22 1024.47 1024.68 1024.85 1024.95 1024.96 1024.90
1017.98 1018.29 1018.63 1018.99 1019.37 1019.75 1020.12 1020.48 1020.83 1021.15 1021.44 1021.67 1021.83 1021.90 1021.88 1021.77 1021.57 1021.30 1021.00 1020.69 1020.40 1020.18 1020.04 1019.99 1020.05 1020.19 1020.42 1020.70 1021.02 1021.35 1021.67 1021.97 1022.23 1022.45 1022.64 1022.79 1022.92 1023.05 1023.20 1023.38 1023.61 1023.86 1024.14 1024.42 1024.67 1024.87 1024.98 1025.00 1024.93
1018.34 1018.64 1018.98 1019.37 1019.78 1020.22 1020.65 1021.08 1021.48 1021.84 1022.15 1022.39 1022.55 1022.62 1022.60 1022.49 1022.30 1022.05 1021.74 1021.42 1021.12 1020.84 1020.63 1020.50 1020.46 1020.51 1020.65 1020.86 1021.12 1021.41 1021.71 1021.99 1022.24 1022.44 1022.60 1022.73 1022.84 1022.95 1023.09 1023.27 1023.49 1023.76 1024.06 1024.37 1024.64 1024.86 1025.00 1025.03 1024.97
1018.72 1019.01 1019.35 1019.76 1020.21 1020.69 1021.19 1021.67 1022.11 1022.51 1022.83 1023.08 1023.24 1023.32 1023.31 1023.22 1023.05 1022.83 1022.55 1022.26 1021.95 1021.67 1021.42 1021.23 1021.11 1021.08 1021.13 1021.26 1021.46 1021.69 1021.95 1022.19 1022.40 1022.58 1022.71 1022.81 1022.88 1022.96 1023.06 1023.22 1023.42 1023.68 1023.98 1024.29 1024.58 1024.82 1024.98 1025.05 1025.02
1019.15 1019.42 1019.76 1020.18 1020.65 1021.17 1021.71 1022.23 1022.71 1023.13 1023.48 1023.73 1023.90 1023.98 1023.98 1023.92 1023.79 1023.61 1023.39 1023.14 1022.88 1022.61 1022.36 1022.14 1021.98 1021.89 1021.87 1021.93 1022.05 1022.22 1022.41 1022.60 1022.77 1022.90 1022.98 1023.03 1023.06 1023.10 1023.15 1023.26 1023.42 1023.64 1023.90 1024.19 1024.47 1024.72 1024.90 1025.00 1025.02
1019.64 1019.88 1020.21 1020.62 1021.11 1021.65 1022.21 1022.77 1023.28 1023.71 1024.07 1024.33 1024.50 1024.59 1024.61 1024.58 1024.50 1024.39 1024.24 1024.06 1023.86 1023.64 1023.42 1023.22 1023.04 1022.91 1022.84 1022.83 1022.88 1022.97 1023.09 1023.22 1023.32 1023.40 1023.43 1023.43 1023.41 1023.38 1023.38 1023.41 1023.50 1023.64 1023.84 1024.07 1024.31 1024.55 1024.74 1024.88 1024.95
1020.18 1020.39 1020.69 1021.08 1021.57 1022.12 1022.70 1023.27 1023.80 1024.26 1024.62 1024.89 1025.07 1025.17 1025.22 1025.22 1025.20 1025.15 1025.08 1024.99 1024.87 1024.72 1024.56 1024.39 1024.22 1024.08 1023.97 1023.90 1023.88 1023.90 1023.95 1024.01 1024.05 1024.07 1024.05 1024.00 1023.92 1023.83 1023.75 1023.69 1023.68 1023.73 1023.82 1023.97 1024.14 1024.33 1024.52 1024.67 1024.79
1020.74 1020.91 1021.18 1021.55 1022.03 1022.58 1023.17 1023.76 1024.31 1024.78 1025.16 1025.45 1025.65 1025.77 1025.85 1025.89 1025.91 1025.93 1025.93 1025.92 1025.89 1025.83 1025.73 1025.61 1025.47 1025.33 1025.19 1025.08 1025.00 1024.95 1024.93 1024.91 1024.90 1024.86 1024.80 1024.70 1024.57 1024.42 1024.26 1024.12 1024.00 1023.93 1023.90 1023.93 1024.01 1024.12 1024.26 1024.42 1024.56
1021.29 1021.42 1021.66 1022.01 1022.47 1023.02 1023.62 1024.23 1024.81 1025.31 1025.73 1026.05 1026.28 1026.43 1026.53 1026.61 1026.68 1026.74 1026.81 1026.87 1026.92 1026.93 1026.91 1026.84 1026.73 1026.59 1026.44 1026.29 1026.16 1026.05 1025.96 1025.88 1025.81 1025.74 1025.64 1025.51 1025.34 1025.15 1024.93 1024.70 1024.48 1024.28 1024.12 1024.02 1023.97 1023.98 1024.06 1024.17 1024.31
1021.81 1021.91 1022.11 1022.44 1022.89 1023.43 1024.05 1024.69 1025.31 1025.86 1026.33 1026.70 1026.97 1027.16 1027.30 1027.41 1027.51 1027.61 1027.73 1027.84 1027.94 1028.01 1028.04 1028.01 1027.94 1027.81 1027.65 1027.47 1027.29 1027.13 1026.98 1026.86 1026.75 1026.64 1026.52 1026.38 1026.20 1025.97 1025.71 1025.42 1025.10 1024.79 1024.51 1024.27 1024.10 1023.99 1023.97 1024.02 1024.13
1022.29 1022.36 1022.54 1022.84 1023.27 1023.82 1024.46 1025.14 1025.81 1026.43 1026.97 1027.40 1027.73 1027.98 1028.15 1028.29 1028.41 1028.54 1028.67 1028.81 1028.94 1029.05 1029.11 1029.12 1029.06 1028.94 1028.77 1028.57 1028.36 1028.15 1027.97 1027.80 1027.67 1027.54 1027.42 1027.28 1027.10 1026.87 1026.59 1026.25 1025.88 1025.48 1025.09 1024.73 1024.43 1024.22 1024.09 1024.06 1024.10
1022.75 1022.80 1022.94 1023.22 1023.64 1024.19 1024.85 1025.56 1026.30 1026.99 1027.60 1028.12 1028.52 1028.83 1029.05 1029.21 1029.35 1029.48 1029.62 1029.76 1029.90 1030.02 1030.10 1030.12 1030.08 1029.96 1029.79 1029.57 1029.33 1029.10 1028.88 1028.69 1028.54 1028.41 1028.29 1028.17 1028.00 1027.79 1027.51 1027.17 1026.76 1026.31 1025.85 1025.40 1025.01 1024.69 1024.47 1024.35 1024.32
1023.25 1023.26 1023.36 1023.60 1023.99 1024.53 1025.20 1025.95 1026.73 1027.50 1028.20 1028.80 1029.28 1029.65 1029.92 1030.11 1030.26 1030.39 1030.52 1030.66 1030.79 1030.91 1030.99 1031.01 1030.98 1030.86 1030.69 1030.46 1030.21 1029.95 1029.71 1029.51 1029.35 1029.23 1029.12 1029.02 1028.89 1028.70 1028.45 1028.11 1027.70 1027.24 1026.74 1026.25 1025.81 1025.42 1025.13 1024.94 1024.84
1023.82 1023.78 1023.83 1024.01 1024.35 1024.85 1025.51 1026.27 1027.10 1027.92 1028.69 1029.37 1029.93 1030.37 1030.69 1030.92 1031.09 1031.22 1031.34 1031.46 1031.58 1031.69 1031.77 1031.80 1031.76 1031.65 1031.48 1031.25 1030.99 1030.73 1030.48 1030.27 1030.10 1029.99 1029.90 1029.81 1029.71 1029.56 1029.34 1029.03 1028.65 1028.21 1027.73 1027.23 1026.77 1026.37 1026.05 1025.81 1025.66
1024.52 1024.42 1024.38 1024.48 1024.73 1025.17 1025.78 1026.53 1027.36 1028.22 1029.05 1029.80 1030.43 1030.93 1031.31 1031.58 1031.77 1031.91 1032.04 1032.15 1032.27 1032.37 1032.45 1032.49 1032.46 1032.36 1032.19 1031.97 1031.71 1031.44 1031.19 1030.97 1030.81 1030.69 1030.61 1030.55 1030.46 1030.34 1030.16 1029.90 1029.56 1029.16 1028.72 1028.26 1027.83 1027.45 1027.13 1026.89 1026.71
Thickness
5671 5676 5679 5675 5662 5658 5663 5679 5690 5691 5693 5697 5699 5698 5695 5689 5684 5675 5687 5696 5697 5696 5692 5689 5688 5688 5687 5685 5684 5683 5682 5681 5680 5679 5678 5677 5677 5676 5675 5675 5674 5673 5672 5671 5671 5670 5668 5668 5667
5668 5673 5671 5663 5653 5650 5663 5681 5683 5686 5690 5693 5693 5693 5690 5685 5687 5685 5686 5690 5692 5691 5688 5685 5684 5683 5682 5681 5679 5678 5678 5677 5676 5675 5674 5673 5673 5672 5671 5670 5670 5669 5668 5667 5666 5665 5664 5663 5662
5666 5669 5660 5655 5652 5653 5663 5676 5679 5684 5688 5686 5684 5685 5681 5678 5681 5680 5682 5686 5686 5685 5683 5681 5679 5678 5678 5676 5675 5674 5673 5672 5671 5671 5670 5669 5668 5668 5667 5666 5665 5664 5663 5662 5661 5660 5659 5658 5658
5662 5659 5656 5649 5650 5663 5670 5674 5677 5677 5679 5681 5678 5673 5673 5673 5674 5674 5677 5680 5680 5679 5678 5675 5674 5673 5673 5672 5670 5670 5669 5668 5667 5666 5665 5665 5664 5663 5662 5661 5660 5659 5658 5657 5656 5655 5654 5654 5654
5656 5651 5645 5643 5651 5664 5673 5674 5674 5669 5670 5673 5672 5665 5662 5666 5669 5669 5671 5673 5674 5673 5672 5670 5669 5668 5667 5667 5666 5665 5664 5663 5662 5661 5661 5660 5659 5658 5657 5656 5655 5654 5653 5652 5651 5650 5649 5649 5649
5645 5647 5637 5638 5650 5663 5669 5671 5669 5665 5665 5666 5664 5660 5655 5660 5661 5662 5664 5665 5667 5666 5666 5664 5663 5663 5662 5661 5660 5660 5659 5659 5658 5657 5656 5655 5654 5653 5652 5651 5650 5649 5648 5647 5646 5645 5645 5644 5644
5635 5635 5635 5642 5647 5655 5661 5665 5661 5658 5656 5655 5658 5654 5650 5652 5654 5656 5657 5658 5659 5659 5658 5657 5657 5657 5656 5656 5655 5655 5654 5653 5653 5652 5651 5650 5649 5648 5647 5646 5645 5644 5643 5642 5641 5640 5640 5640 5639
5634 5631 5632 5638 5642 5647 5656 5658 5655 5651 5647 5651 5651 5645 5641 5643 5647 5649 5650 5651 5651 5651 5651 5650 5650 5650 5650 5650 5649 5649 5648 5648 5647 5646 5645 5644 5643 5642 5641 5641 5639 5638 5638 5637 5636 5635 5635 5635 5635
5629 5618 5622 5633 5637 5643 5649 5646 5646 5647 5643 5641 5640 5637 5636 5638 5640 5640 5640 5641 5642 5642 5642 5643 5643 5644 5644 5644 5643 5642 5642 5641 5641 5640 5639 5639 5638 5637 5636 5635 5634 5633 5632 5632 5631 5631 5630 5630 5630
5617 5610 5621 5631 5635 5636 5637 5637 5638 5636 5632 5630 5630 5630 5631 5631 5631 5631 5631 5631 5632 5632 5634 5635 5636 5636 5637 5638 5637 5636 5635 5635 5635 5635 5634 5633 5633 5632 5630 5629 5629 5628 5627 5626 5626 5626 5625 5626 5626
5612 5610 5619 5624 5628 5628 5626 5625 5629 5625 5620 5621 5621 5622 5623 5623 5623 5623 5624 5624 5624 5625 5626 5627 5629 5630 5630 5630 5630 5630 5630 5629 5628 5628 5628 5628 5627 5626 5625 5624 5623 5622 5622 5621 5620 5620 5620 5620 5620
5605 5607 5612 5614 5616 5616 5615 5616 5614 5612 5611 5616 5617 5617 5616 5616 5616 5617 5616 5617 5618 5619 5620 5621 5622 5623 5623 5624 5624 5624 5624 5623 5623 5622 5621 5621 5621 5621 5619 5618 5617 5617 5616 5616 5615 5615 5615 5615 5615
5596 5599 5602 5605 5605 5604 5604 5603 5603 5604 5608 5611 5611 5610 5609 5609 5610 5611 5611 5611 5612 5612 5613 5614 5614 5616 5616 5616 5617 5617 5617 5617 5616 5615 5615 5615 5615 5614 5614 5613 5612 5611 5610 5610 5609 5609 5609 5608 5609
5590 5591 5594 5596 5597 5597 5594 5594 5594 5599 5603 5603 5603 5602 5602 5602 5603 5604 5603 5603 5604 5605 5606 5607 5607 5609 5609 5609 5609 5610 5610 5610 5609 5609 5609 5608 5608 5607 5607 5606 5605 5605 5604 5604 5603 5603 5602 5602 5602
5582 5580 5585 5590 5591 5591 5588 5584 5587 5593 5596 5595 5595 5595 5596 5596 5596 5595 5595 5595 5597 5598 5599 5600 5601 5601 5601 5602 5602 5603 5602 5602 5602 5602 5601 5601 5601 5600 5600 5599 5599 5598 5597 5596 5596 5596 5595 5595 5595
5573 5571 5572 5585 5585 5583 5576 5573 5583 5588 5587 5586 5587 5588 5589 5589 5588 5588 5588 5588 5589 5590 5591 5593 5594 5594 5594 5594 5595 5595 5594 5594 5594 5594 5593 5593 5593 5593 5592 5592 5592 5591 5590 5589 5589 5588 5588 5587 5587
5560 5560 5568 5574 5578 5576 5569 5568 5576 5581 5580 5578 5579 5580 5580 5580 5580 5579 5579 5579 5580 5582 5583 5584 5585 5586 5587 5587 5587 5587 5586 5585 5585 5585 5585 5585 5585 5585 5584 5584 5584 5583 5582 5582 5581 5580 5580 5579 5579
5553 5556 5563 5564 5566 5564 5559 5562 5567 5573 5573 5572 5572 5573 5572 5571 5570 5570 5570 5570 5571 5573 5575 5576 5576 5577 5578 5578 5577 5577 5576 5576 5575 5576 5576 5576 5576 5576 5576 5575 5575 5574 5573 5573 5573 5572 5571 5571 5571
5551 5549 5551 5554 5557 5553 5552 5556 5563 5565 5565 5565 5566 5565 5565 5563 5562 5561 5561 5561 5562 5563 5565 5566 5566 5567 5567 5568 5567 5566 5566 5566 5566 5566 5566 5566 5567 5567 5567 5567 5566 5565 5565 5564 5565 5564 5563 5562 5562
5541 5538 5541 5543 5547 5544 5544 5549 5559 5561 5561 5561 5560 5559 5558 5554 5552 5551 5551 5551 5552 5553 5554 5555 5556 5556 5557 5557 5557 5557 5556 5556 5556 5557 5557 5557 5557 5557 5557 5557 5557 5557 5556 5555 5555 5555 5555 5554 5554
5531 5528 5532 5532 5535 5539 5536 5541 5553 5559 5557 5556 5555 5553 5550 5547 5543 5541 5541 5541 5541 5542 5543 5544 5545 5546 5547 5547 5547 5547 5547 5546 5546 5547 5547 5547 5547 5547 5547 5548 5548 5548 5548 5547 5546 5546 5546 5544 5544
5520 5527 5526 5525 5519 5522 5529 5520 5547 5551 5548 5546 5543 5540 5538 5536 5534 5532 5531 5530 5530 5530 5532 5533 5534 5535 5536 5537 5537 5537 5537 5537 5537 5538 5538 5537 5537 5537 5538 5538 5539 5539 5538 5538 5537 5537 5537 5536 5535
5514 5519 5517 5518 5513 5510 5518 5511 5531 5546 5539 5536 5533 5530 5528 5526 5524 5522 5520 5519 5519 5519 5520 5522 5523 5524 5525 5526 5527 5527 5527 5527 5528 5528 5528 5527 5527 5528 5528 5529 5529 5529 5529 5528 5528 5528 5528 5527 5526
5507 5506 5507 5507 5502 5491 5512 5508 5519 5531 5534 5531 5527 5521 5517 5514 5512 5510 5509 5508 5508 5508 5509 5510 5511 5512 5514 5515 5515 5516 5516 5516 5517 5517 5517 5517 5517 5517 5518 5518 5518 5519 5519 5519 5518 5519 5518 5518 5517
5495 5489 5482 5479 5477 5488 5513 5510 5513 5525 5527 5525 5520 5512 5507 5503 5500 5498 5496 5496 5495 5495 5496 5498 5499 5500 5502 5503 5504 5505 5505 5506 5506 5507 5507 5507 5507 5507 5508 5508 5508 5508 5509 5509 5509 5509 5508 5508 5508
5485 5486 5476 5471 5478 5492 5498 5497 5508 5514 5513 5513 5511 5504 5498 5493 5489 5487 5485 5483 5482 5483 5484 5485 5487 5488 5489 5491 5492 5493 5494 5495 5495 5495 5496 5496 5496 5497 5497 5497 5498 5498 5498 5498 5499 5499 5498 5497 5497
5478 5477 5484 5472 5464 5467 5487 5497 5501 5502 5501 5499 5497 5491 5486 5482 5479 5476 5473 5471 5470 5470 5471 5473 5474 5475 5476 5478 5480 5481 5482 5483 5484 5484 5484 5485 5485 5485 5486 5486 5487 5487 5487 5488 5488 5488 5487 5486 5486
5470 5473 5463 5459 5453 5459 5487 5495 5497 5492 5489 5487 5483 5479 5476 5472 5468 5464 5462 5460 5459 5458 5459 5460 5461 5462 5463 5465 5467 5469 5470 5471 5472 5472 5473 5473 5474 5474 5474 5475 5475 5475 5476 5476 5477 5477 5476 5475 5474
5455 5455 5454 5455 5458 5457 5465 5484 5498 5494 5488 5480 5475 5470 5465 5461 5456 5453 5451 5448 5447 5446 5446 5447 5448 5449 5451 5453 5454 5456 5457 5458 5459 5460 5460 5461 5462 5462 5462 5463 5463 5463 5463 5464 5464 5465 5464 5463 5462
5448 5450 5447 5439 5438 5449 5456 5467 5481 5479 5477 5472 5465 5461 5456 5451 5446 5442 5439 5437 5435 5434 5434 5434 5435 5435 5437 5439 5441 5443 5444 5445 5446 5447 5447 5448 5449 5449 5450 5450 5451 5451 5450 5450 5451 5451 5451 5451 5450